Location: Newark
(26.0600°N, 83.1900°E)
Time: 15:50:05
(UTC+00:00)

ISS - Visible Passes

Search period start: 21 August 2019 00:00
Search period end: 31 August 2019 00:00
Orbit: 410 x 421 km, 51.6° (Epoch: 22 August)

Date Brightness Start Highest point End Pass type
(mag) Time Alt. Az. Time Alt. Az. Time Alt. Az.
23 Aug -2.3 22:56:41 14° S 22:59:06 32° SE 23:02:07 10° ENE visible
24 Aug -1.2 22:10:31 15° SE 22:10:31 15° SE 22:12:33 10° E visible
25 Aug -3.6 22:57:08 36° WSW 22:58:11 54° NW 23:01:28 10° NNE visible
26 Aug -2.0 22:10:43 33° ENE 22:10:43 33° ENE 22:12:44 10° NE visible
27 Aug -1.8 22:57:07 16° NW 22:57:26 16° NW 22:59:36 10° N visible
28 Aug -1.2 22:10:31 17° N 22:10:31 17° N 22:11:30 10° NNE visible
